This is the latest recevied weather packets stored in our database for station/object SV9TNF-57. If no packets are shown the sender has not sent any weather packets the latest 10 day(s).
| Time | Temp. | Humidity | Pressure | Rain* | Wind** | Luminosity | Snow |
|---|---|---|---|---|---|---|---|
| 1787928084 | 30.56° C | 49% | 994.5 hPa | 0 mm | 1.34 m/s, 122° | - | - |
| 1787927786 | 30.56° C | 44% | 994.6 hPa | 0 mm | 4.92 m/s, 147° | - | - |
| 1787927484 | 31.67° C | 49% | 994.8 hPa | 0 mm | 0.89 m/s, 126° | - | - |
| 1787927184 | 31.67° C | 46% | 994.6 hPa | 0 mm | 1.34 m/s, 173° | - | - |
| 1787926884 | 30.56° C | 46% | 994.8 hPa | 0 mm | 2.68 m/s, 168° | - | - |
| 1787926584 | 30.56° C | 48% | 994.9 hPa | 0 mm | 5.36 m/s, 155° | - | - |
| 1787926284 | 31.67° C | 45% | 994.9 hPa | 0 mm | 4.47 m/s, 123° | - | - |
| 1787925983 | 31.67° C | 41% | 994.8 hPa | 0 mm | 1.79 m/s, 126° | - | - |
| 1787925683 | 31.11° C | 44% | 994.9 hPa | 0 mm | 0 m/s | - | - |
| 1787925383 | 31.67° C | 45% | 995 hPa | 0 mm | 5.36 m/s, 120° | - | - |
| 1787925083 | 32.22° C | 46% | 994.9 hPa | 0 mm | 4.02 m/s, 177° | - | - |
| 1787924783 | 31.67° C | 50% | 994.9 hPa | 0 mm | 0 m/s | - | - |
| 1787924483 | 31.11° C | 53% | 995 hPa | 0 mm | 4.02 m/s, 177° | - | - |
| 1787924183 | 30.56° C | 56% | 995 hPa | 0 mm | 1.79 m/s, 206° | - | - |
| 1787923883 | 31.11° C | 48% | 995 hPa | 0 mm | 2.68 m/s, 167° | - | - |
| 1787923583 | 31.11° C | 53% | 994.9 hPa | 0 mm | 2.68 m/s, 115° | - | - |
| 1787923283 | 31.11° C | 53% | 994.8 hPa | 0 mm | 5.81 m/s, 167° | - | - |
| 1787922982 | 31.11° C | 53% | 995.1 hPa | 0 mm | 1.34 m/s, 163° | - | - |
| 1787922683 | 31.11° C | 54% | 994.9 hPa | 0 mm | 1.34 m/s, 238° | - | - |
| 1787922383 | 31.67° C | 49% | 995 hPa | 0 mm | 1.79 m/s, 157° | - | - |
| 1787922082 | 30.56° C | 54% | 995 hPa | 0 mm | 4.92 m/s, 128° | - | - |
| 1787921782 | 31.11° C | 55% | 994.9 hPa | 0 mm | 4.02 m/s, 194° | - | - |
| 1787921482 | 31.11° C | 55% | 994.8 hPa | 0 mm | 1.34 m/s, 180° | - | - |
| 1787921182 | 31.11° C | 57% | 995.1 hPa | 0 mm | 0 m/s | - | - |
| 1787920882 | 30.56° C | 56% | 995.1 hPa | 0 mm | 4.47 m/s, 172° | - | - |
* Rain latest hour (hover to see other rain measurements)
** Current wind speed in m/s (hover to see current wind gust speed)